Date,TemperatureHighF,TemperatureAvgF,TemperatureLowF,DewpointHighF,DewpointAvgF,DewpointLowF,HumidityHigh,HumidityAvg,HumidityLow,PressureMaxIn,PressureMinIn,WindSpeedMaxMPH,WindSpeedAvgMPH,GustSpeedMaxMPH,PrecipitationSumIn
2013-1-1,47.6,44.7,41.6,47.1,37.8,25.5,98,79,47,30.12,29.93,4,1,5,0.17
2013-1-2,47.1,42.7,38.3,46.6,37.9,32.2,98,84,60,30.18,29.92,4,1,7,0.14
2013-1-3,42.6,36.8,25.7,34.8,30.6,23.2,91,78,65,30.28,30.14,1,0,2,0.00
2013-1-4,48.3,34.5,23.0,23.7,20.6,16.1,91,61,32,30.34,30.22,4,1,6,0.00
2013-1-5,51.8,37.1,24.5,32.7,22.1,18.2,81,57,28,30.41,30.25,1,0,2,0.00
2013-1-6,53.0,42.2,37.0,34.7,32.8,28.8,87,70,47,30.24,30.05,4,0,6,0.01
2013-1-7,53.2,38.1,28.2,29.3,26.9,24.6,88,66,38,30.43,30.20,5,1,7,0.00
2013-1-8,55.2,40.6,26.1,39.6,32.5,23.2,92,75,49,30.48,30.37,1,0,4,0.00
2013-1-9,62.0,47.6,33.7,48.7,41.3,31.6,96,80,60,30.46,30.36,3,0,4,0.00
2013-1-10,61.9,51.4,42.8,47.1,38.7,29.5,96,66,30,30.53,30.40,4,1,5,0.00
2013-1-11,48.6,43.3,39.7,44.0,40.9,37.5,98,92,68,30.40,30.17,3,0,4,0.14
2013-1-12,65.1,53.5,44.5,59.7,52.1,44.0,99,95,81,30.18,30.09,2,0,6,0.00
2013-1-13,71.8,60.8,51.3,58.4,55.3,50.8,99,84,60,30.12,30.03,5,1,7,0.00
2013-1-14,62.5,60.3,54.4,60.8,57.9,53.4,98,92,81,30.12,30.05,5,1,10,0.31
2013-1-15,54.2,42.1,39.3,53.6,41.4,38.8,98,97,94,30.22,30.07,7,3,11,0.05
2013-1-16,48.3,42.9,37.7,48.0,42.5,37.2,99,99,98,30.08,29.97,3,1,5,0.16
2013-1-17,48.6,42.2,31.3,48.3,41.6,30.2,99,98,92,30.17,29.88,11,4,12,0.64
2013-1-18,37.6,29.6,25.8,31.1,27.0,23.8,98,90,66,30.54,30.16,1,0,2,0.21
2013-1-19,48.7,29.7,22.1,29.9,24.5,20.1,94,82,48,30.51,30.17,1,0,3,0.01
2013-1-20,60.0,45.4,32.6,33.9,28.3,25.6,79,53,29,30.17,30.01,5,1,9,0.00
2013-1-21,57.1,41.7,27.2,31.5,23.8,11.3,91,54,27,30.09,29.88,6,1,10,0.00
2013-1-22,38.4,30.9,21.8,13.4,3.4,-4.6,59,32,19,30.28,29.98,8,2,13,0.00
2013-1-23,38.8,27.4,15.7,16.3,9.9,1.1,79,50,29,30.38,30.06,4,0,8,0.00
2013-1-24,36.3,29.3,21.4,24.3,9.7,-1.6,79,46,25,30.52,29.99,9,2,12,0.00
2013-1-25,24.5,20.9,16.2,22.0,14.2,2.3,92,76,45,30.54,30.14,6,2,8,0.00
2013-1-26,37.4,29.3,24.2,30.7,26.0,22.1,94,88,73,30.42,30.12,2,0,3,0.08
2013-1-27,40.6,32.0,23.6,26.2,22.7,17.2,82,69,54,30.61,30.42,3,1,5,0.04
2013-1-28,46.8,39.5,31.4,44.0,32.6,24.6,92,77,60,30.51,30.24,4,1,6,0.02
2013-1-29,71.0,56.4,43.3,54.9,49.3,42.2,98,79,54,30.25,30.03,5,1,7,0.00
2013-1-30,70.6,64.4,55.8,61.9,58.2,52.3,94,81,62,30.04,29.38,11,6,21,0.46
2013-1-31,55.4,42.3,33.2,52.7,25.7,15.5,93,54,31,30.00,29.44,8,4,15,0.03
2013-2-1,38.6,31.9,23.8,25.5,9.5,-1.0,63,41,22,30.39,29.87,7,2,11,0.00
2013-2-2,41.1,30.4,16.5,32.8,13.5,4.1,88,52,27,30.41,30.05,7,1,9,0.02
2013-2-3,46.5,37.9,30.9,33.3,26.2,18.7,95,66,38,30.04,29.86,5,1,8,0.00
2013-2-4,47.4,36.6,24.6,26.2,20.7,16.1,81,54,32,30.15,30.01,3,1,8,0.00
2013-2-5,59.7,43.3,34.3,33.5,29.2,25.2,79,59,33,30.00,29.90,5,1,7,0.00
2013-2-6,60.5,43.4,28.2,32.3,24.4,17.2,92,54,20,30.27,29.98,5,1,6,0.00
2013-2-7,41.1,37.7,33.5,36.8,31.4,23.0,95,79,49,30.32,30.02,6,3,8,0.31
2013-2-8,55.0,42.1,34.5,43.3,34.3,24.7,96,76,44,30.08,29.84,7,3,9,0.12
2013-2-9,54.1,38.6,27.9,24.7,19.6,12.5,79,51,21,30.37,30.07,5,1,8,0.00
2013-2-10,51.6,38.8,24.6,37.0,21.2,16.2,83,53,27,30.49,30.20,4,1,8,0.07
2013-2-11,58.0,50.7,42.1,56.8,48.8,37.0,98,93,82,30.20,29.93,6,2,7,0.02
2013-2-12,56.9,49.4,41.6,49.2,31.8,22.2,93,54,26,30.09,29.90,3,1,8,0.00
2013-2-13,47.6,42.9,38.0,43.2,39.7,31.1,96,89,54,29.95,29.63,4,1,7,0.25
2013-2-14,49.5,38.2,27.0,32.9,28.6,24.6,96,71,38,30.08,29.85,3,0,5,0.01
2013-2-15,60.3,44.0,28.5,36.3,29.1,23.2,96,62,26,30.10,29.93,5,1,7,0.00
2013-2-16,42.6,34.4,29.7,32.5,29.7,20.5,94,84,65,29.98,29.84,4,1,6,0.07
2013-2-17,37.0,28.7,18.9,15.0,7.8,2.1,79,43,25,30.29,30.07,6,2,9,0.01
2013-2-18,53.2,34.2,15.0,23.1,16.8,10.7,92,54,25,30.42,30.23,4,1,8,0.00
2013-2-19,44.5,38.5,31.4,42.1,32.4,20.9,96,79,55,30.24,29.87,6,1,8,0.15
2013-2-20,52.0,39.6,25.8,25.4,12.7,3.9,78,36,15,30.14,30.00,4,1,7,0.00
2013-2-21,56.3,39.9,22.7,19.1,14.3,8.8,76,38,16,30.26,30.11,4,1,6,0.00
2013-2-22,42.1,33.7,31.3,32.4,30.4,21.6,96,88,44,30.33,30.13,2,1,4,0.29
2013-2-23,41.3,37.0,33.2,40.2,35.9,32.2,97,96,92,30.15,29.83,4,0,5,0.15
2013-2-24,60.9,47.6,38.4,42.9,33.3,22.5,98,64,25,30.03,29.82,6,1,9,0.01
2013-2-25,40.6,36.2,31.4,23.8,21.7,19.0,69,56,45,30.22,30.03,5,2,7,0.00
2013-2-26,42.8,37.0,30.9,42.3,34.1,22.0,99,90,61,30.15,29.58,6,2,9,0.45
2013-2-27,56.1,44.9,37.6,38.6,36.3,31.9,98,75,45,29.80,29.64,5,1,9,0.00
2013-2-28,46.5,39.7,31.0,35.3,26.0,20.6,88,60,38,29.87,29.70,5,1,8,0.00
2013-3-1,43.0,38.5,31.2,28.1,25.3,23.2,84,60,46,29.93,29.85,4,1,6,0.00
2013-3-2,42.7,36.2,29.5,27.3,22.6,16.3,83,59,44,29.94,29.82,6,1,7,0.00
2013-3-3,42.8,33.7,26.6,19.6,15.5,12.3,62,47,33,30.00,29.87,5,2,8,0.00
2013-3-4,52.1,35.0,20.7,24.4,13.7,8.6,77,45,18,30.13,30.00,4,1,7,0.00
2013-3-5,42.6,39.3,33.8,41.8,32.2,19.9,97,77,50,30.08,29.58,5,0,6,0.22
2013-3-6,45.6,38.5,33.2,39.9,27.1,20.6,97,65,42,30.08,29.56,9,4,10,0.01
2013-3-7,52.1,40.1,30.6,28.8,24.9,21.7,80,56,35,30.26,30.07,7,2,9,0.00
2013-3-8,53.6,41.6,29.7,24.0,21.2,17.6,74,47,25,30.32,30.19,7,3,13,0.00
2013-3-9,65.6,46.3,32.2,31.9,26.2,22.4,74,48,25,30.35,30.24,5,1,5,0.00
2013-3-10,68.4,50.3,32.0,32.0,28.0,22.1,85,47,22,30.31,30.19,4,1,7,0.00
2013-3-11,64.5,52.9,39.0,51.5,39.2,22.1,84,61,33,30.22,29.89,7,2,11,0.02
2013-3-12,65.4,56.8,44.7,56.7,46.6,29.2,97,73,29,29.95,29.73,7,3,12,0.93
2013-3-13,52.9,41.9,29.7,31.9,24.1,15.4,92,53,26,30.16,29.96,7,3,11,0.00
2013-3-14,51.1,38.6,28.8,20.7,13.7,10.9,54,37,20,30.26,30.14,5,2,8,0.00
2013-3-15,61.2,44.5,25.8,34.2,25.7,16.8,83,51,29,30.19,29.89,7,2,9,0.00
2013-3-16,75.3,61.0,45.6,50.9,41.7,33.4,76,51,31,29.90,29.65,7,3,10,0.00
2013-3-17,56.1,48.7,38.6,49.2,42.4,35.4,92,79,55,30.15,29.82,7,3,9,0.00
2013-3-18,38.8,37.3,36.0,37.8,35.9,34.7,97,95,90,30.18,29.84,4,2,9,0.24
2013-3-19,64.1,48.1,36.5,41.2,28.9,8.3,98,59,17,30.03,29.83,7,2,9,0.00
2013-3-20,54.8,45.6,37.7,24.3,11.7,3.5,49,26,17,30.10,29.80,4,1,7,0.00
2013-3-21,45.6,36.9,28.3,27.3,13.0,5.7,56,38,24,29.99,29.75,6,2,10,0.00
2013-3-22,51.1,35.1,19.3,24.9,13.2,8.2,79,43,21,30.09,29.98,5,1,7,0.00
2013-3-23,58.4,43.2,34.1,30.7,24.5,17.8,73,50,28,30.06,29.91,2,0,5,0.00
2013-3-24,39.6,36.5,33.7,36.3,32.5,26.3,95,86,65,29.93,29.55,7,2,10,0.29
2013-3-25,44.9,37.8,32.9,35.3,26.2,18.5,97,67,38,29.84,29.56,9,2,14,0.01
2013-3-26,44.5,38.6,32.8,25.9,23.2,21.3,69,55,41,30.15,29.84,5,2,7,0.00
2013-3-27,48.1,39.2,31.9,23.2,20.3,16.7,69,48,30,30.25,30.14,6,2,9,0.00
2013-3-28,54.4,41.0,27.8,24.7,20.3,17.7,72,46,25,30.31,30.18,6,2,12,0.00
2013-3-29,58.4,43.4,25.1,32.1,22.6,18.2,86,50,21,30.35,30.18,5,1,7,0.00
2013-3-30,65.3,51.5,35.4,38.0,31.7,23.7,84,51,25,30.24,30.07,5,1,6,0.00
2013-3-31,66.3,54.1,46.5,53.3,48.1,37.3,97,82,56,30.08,29.79,6,2,8,0.53
2013-4-1,70.5,57.4,48.4,51.6,42.5,33.0,98,64,27,29.96,29.82,6,2,9,0.03
2013-4-2,59.7,47.7,32.0,34.3,25.1,16.8,85,45,20,30.15,29.96,6,1,10,0.00
2013-4-3,58.7,47.5,37.3,32.1,17.6,13.0,60,32,17,30.29,30.13,5,2,7,0.00
2013-4-4,46.8,39.4,34.8,35.2,26.8,12.6,94,65,27,30.34,29.96,7,3,10,0.43
2013-4-5,64.8,48.0,34.4,43.8,36.5,26.4,97,70,27,30.03,29.90,5,2,8,0.00
2013-4-6,69.4,52.0,35.7,34.1,30.2,26.7,87,48,23,30.26,30.03,5,1,8,0.00
2013-4-7,69.3,55.2,38.0,43.9,38.1,30.5,90,56,31,30.25,30.09,6,2,8,0.00
2013-4-8,76.1,63.7,51.8,53.5,49.2,42.5,90,62,37,30.15,30.03,5,2,9,0.00
2013-4-9,82.8,68.8,52.4,56.1,52.2,48.0,93,59,32,30.17,30.04,5,1,9,0.00
2013-4-10,84.6,72.0,58.7,58.9,55.2,52.9,84,58,34,30.08,29.92,5,2,8,0.00
2013-4-11,79.2,69.1,59.4,62.1,57.3,54.3,89,68,44,29.96,29.75,5,2,10,0.00
2013-4-12,80.9,70.1,61.4,64.4,56.2,36.3,96,65,33,29.76,29.57,6,3,11,0.25
2013-4-13,74.3,60.9,45.9,44.6,37.5,32.3,77,45,23,30.00,29.76,5,1,7,0.00
2013-4-14,79.6,62.0,42.4,52.6,39.9,29.8,88,51,19,30.09,30.00,4,1,7,0.00
2013-4-15,67.6,60.6,54.5,55.4,53.3,51.8,93,78,60,30.19,29.98,4,1,5,0.01
2013-4-16,75.9,64.7,55.2,58.8,55.8,52.3,95,74,51,30.28,30.17,2,0,4,0.00
2013-4-17,81.5,67.5,55.8,60.6,56.8,52.3,94,71,41,30.21,30.09,3,0,4,0.00
2013-4-18,78.4,68.7,60.5,60.2,56.8,52.6,87,67,42,30.16,29.99,4,1,7,0.00
2013-4-19,76.2,66.6,57.2,66.5,61.5,54.0,97,84,67,30.00,29.68,7,2,8,0.92
2013-4-20,62.0,51.9,43.0,53.9,34.4,27.0,89,54,27,30.26,29.82,4,1,5,0.00
2013-4-21,60.5,49.9,40.6,39.2,34.6,30.3,86,57,36,30.48,30.26,5,1,7,0.00
2013-4-22,60.8,49.2,36.7,39.0,31.5,22.2,85,54,27,30.45,30.25,5,2,8,0.00
2013-4-23,67.3,54.0,45.0,50.6,44.5,38.4,89,72,50,30.28,30.10,3,0,7,0.00
2013-4-24,71.3,59.1,48.4,54.7,50.5,45.0,95,75,51,30.13,29.97,6,1,9,0.00
2013-4-25,67.8,57.7,46.7,54.2,39.4,28.5,79,53,25,30.27,30.01,2,0,4,0.00
2013-4-26,67.6,57.1,44.7,44.9,34.2,27.3,82,45,24,30.43,30.27,2,0,6,0.00
2013-4-27,65.4,58.2,51.7,51.3,45.8,40.5,84,64,45,30.35,30.25,1,0,2,0.00
2013-4-28,55.4,53.5,51.8,53.3,50.9,47.4,98,91,80,30.25,30.06,2,0,2,1.29
2013-4-29,65.4,58.9,54.1,59.5,56.7,53.5,98,93,74,30.06,29.95,1,0,2,0.39
2013-4-30,62.7,57.9,54.8,57.2,54.7,51.7,98,89,77,30.18,30.00,2,0,4,0.00
2013-5-1,60.3,56.6,54.7,55.5,53.3,51.7,95,89,81,30.30,30.16,3,2,7,0.00
2013-5-2,57.4,55.2,52.1,54.5,52.4,49.3,94,90,87,30.33,30.25,3,1,6,0.00
2013-5-3,63.5,55.8,48.1,51.3,47.5,38.4,94,75,50,30.26,30.15,4,1,7,0.00
2013-5-4,59.0,51.8,46.7,50.3,44.7,41.2,90,77,61,30.19,30.05,5,2,8,0.00
2013-5-5,54.2,51.1,47.6,53.0,47.4,42.9,96,87,78,30.09,29.95,5,3,8,0.00
2013-5-6,62.8,57.2,53.3,60.6,56.1,52.5,98,96,88,29.97,29.81,4,1,5,0.84
2013-5-7,65.3,57.1,53.0,56.0,52.5,43.4,99,87,45,29.94,29.84,2,0,3,0.00
2013-5-8,66.8,57.9,51.8,58.0,53.5,50.7,97,86,69,30.00,29.91,1,0,2,0.05
2013-5-9,75.9,62.4,49.0,58.6,53.8,47.9,98,77,42,30.06,29.97,1,0,2,0.01
2013-5-10,79.9,67.4,53.9,62.2,56.8,51.5,96,71,43,30.06,29.91,2,0,4,0.00
2013-5-11,76.6,68.5,62.5,65.7,59.8,56.5,90,75,51,29.93,29.76,3,0,6,0.03
2013-5-12,67.3,60.9,53.2,59.1,45.7,31.3,93,61,31,30.02,29.80,2,0,7,0.01
2013-5-13,62.0,53.9,44.3,38.7,33.4,27.8,74,48,28,30.18,30.02,2,0,3,0.00
2013-5-14,67.4,54.3,37.8,46.0,37.8,32.1,90,57,32,30.26,30.06,2,0,4,0.00
2013-5-15,84.2,67.9,52.6,60.4,52.5,42.2,77,60,40,30.06,29.89,1,0,6,0.00
2013-5-16,79.7,69.1,58.7,61.3,57.5,53.1,91,69,40,29.98,29.89,1,0,3,0.00
2013-5-17,81.7,71.1,60.5,64.1,59.6,55.6,92,70,43,30.06,29.97,1,0,2,0.00
2013-5-18,68.3,64.7,60.0,65.3,61.7,57.4,97,90,82,30.14,30.05,1,0,1,0.51
2013-5-19,69.3,65.4,62.0,67.9,64.4,61.1,98,97,89,30.13,30.03,1,0,3,0.91
2013-5-20,71.0,67.3,65.1,70.1,66.3,64.3,98,97,89,30.09,30.00,2,0,4,0.45
2013-5-21,80.5,71.7,65.9,69.8,67.0,65.3,99,86,64,30.03,29.92,1,0,4,0.00
2013-5-22,79.0,71.8,66.3,67.6,65.4,62.9,95,81,62,30.00,29.87,3,0,4,0.57
2013-5-23,72.7,66.9,61.6,65.8,63.6,59.6,98,89,75,29.94,29.80,1,0,2,0.44
2013-5-24,64.1,60.8,53.2,60.7,50.0,35.8,97,70,43,30.19,29.81,3,0,5,0.00
2013-5-25,70.1,56.8,42.7,49.6,39.5,30.8,88,56,30,30.28,30.13,2,0,4,0.00
2013-5-26,69.6,59.9,51.0,52.5,44.9,38.7,80,59,37,30.27,30.16,2,0,2,0.00
2013-5-27,75.9,64.0,50.7,58.0,51.9,47.6,92,67,43,30.27,30.14,1,0,4,0.00
2013-5-28,79.7,69.8,60.0,64.0,60.4,55.3,95,74,52,30.22,30.12,1,0,4,0.00
2013-5-29,79.9,71.1,60.3,63.0,60.1,56.4,92,70,47,30.22,30.14,2,0,5,0.00
2013-5-30,80.1,70.8,61.2,64.2,60.7,56.4,94,72,45,30.26,30.16,2,0,3,0.00
2013-5-31,75.5,66.7,62.7,66.2,62.1,59.4,96,85,70,30.21,30.09,2,0,3,0.00
2013-6-1,82.1,74.1,67.4,65.4,63.6,60.7,91,71,49,30.11,29.99,2,0,5,0.00
2013-6-2,80.3,72.7,66.9,67.6,64.8,62.7,95,77,56,30.02,29.88,2,0,6,0.03
2013-6-3,76.4,68.6,64.6,68.4,66.1,62.8,98,92,67,29.94,29.81,2,0,3,0.72
2013-6-4,70.1,66.5,63.3,64.7,62.7,60.7,98,88,75,30.08,29.93,2,0,4,0.00
2013-6-5,72.0,66.7,62.7,62.3,60.4,57.1,94,81,67,30.12,30.00,0,0,0,0.00
2013-6-6,70.6,67.1,63.5,70.0,66.0,59.7,98,96,75,30.01,29.79,3,0,4,0.91
2013-6-7,69.6,67.1,66.1,69.1,66.7,65.7,99,98,98,29.82,29.57,2,0,3,0.47
2013-6-8,77.0,68.8,61.4,67.4,64.5,60.2,99,87,63,30.08,29.81,1,0,4,0.14
2013-6-9,82.5,72.4,64.1,70.0,66.7,62.3,97,84,59,30.14,30.03,2,0,4,0.03
2013-6-10,78.6,70.9,68.4,72.1,69.0,66.9,98,94,76,30.07,29.85,4,0,6,0.64
2013-6-11,79.4,72.3,66.9,67.3,64.5,60.4,96,78,53,29.95,29.89,2,0,4,0.00
2013-6-12,85.9,74.8,62.2,74.2,67.1,60.2,95,78,59,29.96,29.85,1,0,4,0.00
2013-6-13,89.2,75.6,66.1,72.1,67.7,57.3,96,79,38,29.86,29.58,6,0,10,0.04
2013-6-14,75.3,68.0,59.7,63.7,56.4,52.0,94,68,45,30.01,29.73,2,0,4,0.00
2013-6-15,79.2,68.7,57.2,62.2,58.2,54.6,95,72,44,30.11,30.01,2,0,2,0.00
2013-6-16,81.7,72.8,64.6,66.9,63.1,59.6,85,73,56,30.10,29.99,3,0,4,0.00
2013-6-17,80.5,73.7,68.6,69.6,66.6,63.8,88,79,62,30.01,29.90,1,0,2,0.00
2013-6-18,79.7,70.9,67.6,70.0,67.3,65.4,98,89,65,29.95,29.76,3,0,4,0.24
2013-6-19,76.6,70.1,63.5,67.2,64.7,62.4,98,84,62,30.10,29.87,1,0,2,0.00
2013-6-20,77.1,69.6,63.7,64.0,62.5,60.5,97,79,58,30.22,30.10,1,0,2,0.00
2013-6-21,77.7,68.3,59.5,61.5,57.0,54.0,88,69,46,30.26,30.17,0,0,0,0.00
2013-6-22,77.1,69.7,61.7,67.5,64.3,57.6,94,84,68,30.21,30.10,1,0,1,0.00
2013-6-23,82.5,72.9,65.6,70.5,67.1,63.2,97,83,61,30.20,30.10,0,0,1,0.00
2013-6-24,83.2,74.4,68.6,71.3,68.6,65.9,97,83,64,30.19,30.07,1,0,4,0.00
2013-6-25,84.8,74.3,67.8,70.7,67.9,65.1,97,82,56,30.11,29.98,2,0,4,0.00
2013-6-26,85.5,73.5,66.8,70.9,67.7,64.3,97,83,55,30.02,29.86,2,0,4,0.52
2013-6-27,82.8,74.0,66.1,73.4,69.0,64.8,98,86,64,29.94,29.70,2,0,4,0.01
2013-6-28,85.5,74.9,68.8,74.0,69.2,66.5,98,84,54,29.73,29.56,3,0,5,0.73
2013-6-29,81.1,73.7,67.4,70.4,68.1,64.2,98,84,57,29.70,29.57,1,0,4,0.05
2013-6-30,81.5,73.1,67.4,72.1,68.8,65.8,97,87,67,29.82,29.67,2,0,3,0.11
2013-7-1,76.4,71.2,67.3,69.8,67.9,66.5,98,90,76,29.98,29.81,1,0,3,0.24
2013-7-2,73.4,71.0,70.1,71.1,68.9,67.2,98,93,88,30.15,29.97,2,0,3,0.49
2013-7-3,75.7,72.7,70.3,74.6,71.4,69.7,99,96,86,30.21,30.12,1,0,3,0.01
2013-7-4,81.3,74.3,71.0,73.4,70.7,67.8,98,89,64,30.25,30.15,1,0,4,0.18
2013-7-5,78.6,73.2,69.4,74.7,70.4,67.3,97,91,77,30.24,30.15,2,0,2,0.19
2013-7-6,82.5,74.1,68.8,72.0,70.0,66.8,99,88,62,30.23,30.10,0,0,1,0.01
2013-7-7,82.3,74.9,69.8,73.9,70.5,68.9,98,87,66,30.17,30.04,1,0,5,0.05
2013-7-8,81.9,74.5,70.5,72.2,70.2,66.1,98,88,62,30.16,30.08,1,0,2,0.43
2013-7-9,83.8,76.3,71.0,73.4,71.1,68.4,98,85,64,30.14,30.02,0,0,0,0.00
2013-7-10,83.4,75.5,70.3,72.8,70.3,68.1,97,85,66,30.08,29.91,2,0,4,0.47
2013-7-11,74.3,72.2,70.6,73.4,71.3,69.1,98,97,93,29.95,29.84,1,0,3,0.48
2013-7-12,71.8,69.6,67.9,70.9,67.3,65.1,99,93,82,30.01,29.86,2,0,4,0.01
2013-7-13,75.0,70.2,67.1,70.9,67.6,-99.9,98,93,85,30.13,30.00,2,-4,3,0.00
2013-7-14,81.5,74.5,70.1,71.4,69.8,67.5,97,86,63,30.28,30.13,2,0,5,0.01
2013-7-15,83.0,75.0,67.9,72.0,68.6,65.8,98,82,59,30.32,30.23,0,0,3,0.00
2013-7-16,86.5,77.5,67.9,73.6,69.5,65.5,96,78,56,30.27,30.17,1,0,3,0.00
2013-7-17,86.3,79.0,72.9,75.2,71.8,69.7,94,80,60,30.21,30.08,0,0,0,0.00
2013-7-18,86.7,77.6,71.5,76.2,72.3,69.1,97,85,57,30.13,30.01,0,0,0,0.09
2013-7-19,85.0,77.9,71.2,74.0,72.1,70.1,98,83,63,30.08,29.95,1,0,2,0.00
2013-7-20,83.6,76.3,72.4,74.5,71.3,69.5,97,85,68,30.00,29.89,3,0,4,0.14
2013-7-21,83.8,74.6,70.8,73.4,71.1,67.3,98,90,64,29.97,29.89,2,0,5,0.08
2013-7-22,81.7,74.5,69.8,71.8,70.4,69.0,98,88,68,29.94,29.81,2,0,2,0.02
2013-7-23,84.4,76.8,71.0,70.8,69.3,66.6,95,79,57,29.83,29.71,2,0,4,0.00
2013-7-24,85.9,76.6,67.9,70.6,67.6,62.8,95,75,50,29.84,29.72,0,0,2,0.00
2013-7-25,75.2,70.0,64.5,67.1,64.8,61.5,95,84,72,30.02,29.81,2,0,4,0.04
2013-7-26,79.2,71.2,63.5,67.5,64.0,59.5,95,79,59,30.10,30.01,1,0,4,0.00
2013-7-27,76.4,69.1,66.9,69.5,66.2,63.5,98,91,73,30.03,29.92,1,0,4,0.25
2013-7-28,81.1,73.0,67.4,70.3,67.8,64.9,98,85,58,29.99,29.90,2,0,4,0.03
2013-7-29,79.7,71.5,64.8,67.6,64.0,59.4,97,79,53,30.15,29.98,1,0,3,0.01
2013-7-30,79.9,71.1,64.1,69.1,62.7,56.0,92,76,53,30.22,30.12,0,0,2,0.01
2013-7-31,77.5,72.2,68.4,69.8,67.6,65.1,97,86,67,30.14,29.97,1,0,5,0.00
2013-8-1,79.6,72.9,68.8,71.9,69.6,67.3,98,90,67,29.98,29.85,0,0,1,0.01
2013-8-2,80.7,74.4,69.1,70.6,67.6,63.2,97,81,56,30.01,29.90,0,0,0,0.32
2013-8-3,84.6,75.7,68.6,72.8,69.6,66.8,97,83,59,30.00,29.89,1,0,5,0.00
2013-8-4,79.9,74.0,67.6,68.9,64.7,57.6,91,74,48,30.02,29.88,2,0,4,0.00
2013-8-5,78.6,70.9,63.7,66.7,63.7,61.3,94,79,60,30.07,29.98,1,0,1,0.00
2013-8-6,74.5,69.5,63.2,67.2,64.8,61.1,98,85,73,30.05,29.97,2,0,6,0.44
2013-8-7,80.5,73.2,67.6,70.0,67.2,64.5,96,82,60,30.08,30.01,1,0,2,0.00
2013-8-8,79.9,73.2,68.6,72.1,68.9,66.4,96,87,71,30.06,29.98,0,0,2,0.01
2013-8-9,85.5,74.4,70.6,75.7,70.7,68.5,97,89,64,30.03,29.97,2,0,6,0.33
2013-8-10,85.0,74.4,70.1,75.2,71.7,67.5,98,92,65,30.09,30.01,4,0,5,0.64
2013-8-11,85.5,76.4,69.6,73.9,71.4,69.0,98,86,62,30.09,30.00,1,0,1,0.00
2013-8-12,86.1,77.2,71.0,74.3,71.0,67.9,97,83,56,30.03,29.92,1,0,2,0.01
2013-8-13,82.8,73.3,69.6,73.6,70.2,68.3,98,90,68,29.95,29.77,1,0,4,0.09
2013-8-14,71.3,68.3,63.7,68.3,61.4,54.6,96,80,57,30.07,29.82,1,0,2,0.00
2013-8-15,71.0,64.1,58.7,60.4,56.4,52.6,90,77,53,30.16,30.07,2,0,4,0.00
2013-8-16,67.6,62.7,57.5,59.7,57.4,54.9,93,83,69,30.17,30.09,1,0,2,0.00
2013-8-17,64.6,61.7,59.0,64.3,60.2,56.7,99,95,86,30.18,30.13,3,0,4,0.28
2013-8-18,72.4,66.8,63.8,66.6,64.6,63.1,99,93,80,30.22,30.11,0,0,1,0.15
2013-8-19,70.1,66.8,64.0,68.6,65.6,62.9,99,96,90,30.18,30.08,0,0,1,0.38
2013-8-20,75.9,69.1,62.4,69.8,66.4,61.8,99,91,76,30.18,30.10,0,0,0,0.00
2013-8-21,78.1,72.3,68.8,72.8,70.4,68.1,99,94,78,30.20,30.08,0,0,0,0.06
2013-8-22,82.6,74.2,69.3,71.8,69.6,66.4,98,86,64,30.14,29.98,0,0,0,0.00
2013-8-23,80.9,72.4,64.1,71.0,66.7,61.7,96,83,62,30.07,29.93,2,0,6,0.04
2013-8-24,75.7,67.7,61.7,62.6,59.9,56.1,94,78,53,30.29,30.07,3,0,4,0.00
2013-8-25,75.0,66.4,58.4,62.1,59.0,54.9,97,78,52,30.39,30.28,0,0,0,0.00
2013-8-26,77.3,65.8,54.4,63.4,57.9,51.8,97,77,50,30.32,30.11,0,0,0,0.00
2013-8-27,83.0,72.1,62.4,73.3,65.3,58.5,92,80,58,30.12,29.96,0,0,0,0.00
2013-8-28,79.9,74.3,67.4,73.0,69.7,65.3,95,86,72,29.98,29.87,0,0,1,0.00
2013-8-29,82.1,76.2,71.7,70.9,69.3,67.4,91,80,64,29.99,29.84,2,0,4,0.00
2013-8-30,82.1,72.9,66.9,68.0,65.6,61.3,96,80,51,30.06,29.92,0,0,0,0.00
2013-8-31,83.6,72.7,64.8,72.5,67.1,62.4,97,84,63,29.95,29.84,0,0,0,0.01
2013-9-1,85.2,72.5,66.4,73.4,68.7,64.9,98,89,63,29.89,29.77,0,0,0,1.93
2013-9-2,81.7,72.8,67.4,71.8,69.2,66.8,99,89,64,29.88,29.79,0,0,0,0.08
2013-9-3,81.9,74.1,68.3,73.6,69.3,64.7,97,86,63,29.94,29.78,0,0,4,0.01
2013-9-4,79.9,71.0,64.5,68.7,63.7,58.2,92,78,58,30.08,29.94,1,0,2,0.00
2013-9-5,80.5,70.1,62.4,64.2,60.5,52.3,96,75,39,30.10,30.03,0,0,0,0.00
2013-9-6,75.9,68.3,62.5,61.6,58.1,54.8,87,71,54,30.18,30.08,1,0,3,0.00
2013-9-7,77.7,67.6,58.1,65.1,60.2,55.5,95,78,58,30.13,29.97,1,0,2,0.00
2013-9-8,81.5,71.3,62.2,69.4,63.7,59.7,95,79,53,29.98,29.90,0,0,0,0.00
2013-9-9,83.8,73.3,64.6,69.5,65.8,62.5,97,79,53,30.13,29.98,0,0,0,0.00
2013-9-10,84.2,74.2,66.1,70.0,67.1,63.7,96,80,55,30.22,30.12,0,0,0,0.00
2013-9-11,84.8,74.5,65.8,69.8,66.6,63.1,93,78,53,30.18,30.05,1,0,2,0.00
2013-9-12,84.2,73.5,68.1,73.1,68.2,64.6,95,84,58,30.05,29.80,2,0,4,0.11
2013-9-13,77.9,70.7,63.3,67.2,59.9,48.8,94,70,45,29.90,29.75,0,0,2,0.00
2013-9-14,71.3,62.4,56.1,57.2,51.4,48.0,86,68,51,30.13,29.89,4,0,5,0.00
2013-9-15,75.3,63.5,52.6,62.8,55.9,49.4,91,77,53,30.23,30.11,1,0,1,0.00
2013-9-16,78.1,70.3,63.2,67.1,62.3,56.1,97,78,53,30.18,30.04,4,0,6,0.02
2013-9-17,71.2,64.1,58.0,57.4,53.3,49.4,86,69,46,30.31,30.18,3,1,5,0.00
2013-9-18,68.8,59.3,52.1,56.1,51.0,47.4,90,75,52,30.31,30.17,0,0,0,0.00
2013-9-19,71.8,62.1,53.2,63.2,56.2,49.7,91,82,59,30.19,30.07,0,0,0,0.00
2013-9-20,74.8,67.1,63.2,66.7,63.0,60.2,95,87,74,30.08,29.94,0,0,0,0.01
2013-9-21,73.6,66.5,61.7,67.9,64.2,60.8,98,93,77,29.94,29.71,0,0,0,0.12
2013-9-22,71.2,63.5,56.6,61.1,56.8,53.4,98,80,54,29.89,29.70,3,1,5,0.09
2013-9-23,67.9,59.8,53.2,56.2,52.0,48.2,92,76,57,30.07,29.90,1,0,3,0.25
2013-9-24,72.2,61.7,53.2,58.7,54.7,50.3,93,79,54,30.09,29.94,1,0,4,0.00
2013-9-25,67.6,60.6,52.1,61.0,56.0,49.8,98,85,70,29.95,29.87,0,0,2,0.00
2013-9-26,70.5,62.5,57.2,58.6,55.2,49.2,95,78,52,30.03,29.88,2,0,4,0.00
2013-9-27,70.1,60.7,52.9,55.9,53.0,50.3,92,77,53,30.18,30.04,3,0,4,0.00
2013-9-28,64.6,58.3,52.9,53.6,51.5,49.6,93,79,60,30.26,30.17,3,0,4,0.00
2013-9-29,67.1,59.0,51.7,54.5,51.8,48.6,91,78,54,30.18,30.04,1,0,3,0.00
2013-9-30,71.8,59.3,50.1,57.3,52.2,47.6,96,79,50,30.10,30.00,1,0,1,0.00
2013-10-1,76.2,63.0,52.4,63.1,55.9,49.6,96,79,51,30.12,30.02,0,0,0,0.00
2013-10-2,78.4,65.6,55.1,61.9,56.9,52.2,96,76,45,30.13,30.04,0,0,0,0.00
2013-10-3,81.1,67.5,57.8,64.3,59.2,55.1,96,77,47,30.12,30.04,0,0,0,0.00
2013-10-4,78.8,65.2,58.3,64.9,59.9,55.2,95,84,58,30.13,30.05,0,0,0,0.00
2013-10-5,83.6,70.1,59.0,66.1,61.7,56.7,97,77,47,30.11,30.01,0,0,0,0.00
2013-10-6,79.9,69.4,60.8,67.6,61.4,57.5,95,77,49,30.04,29.90,0,0,0,0.00
2013-10-7,70.3,67.4,60.6,68.6,64.4,50.7,98,90,67,29.99,29.81,3,0,5,0.46
2013-10-8,63.0,57.7,54.7,50.3,47.0,44.3,80,68,55,30.21,29.99,5,2,9,0.00
2013-10-9,65.9,57.2,52.0,51.7,47.8,44.4,79,71,51,30.20,30.11,5,1,7,0.00
2013-10-10,62.0,56.8,52.9,58.4,53.5,47.6,98,89,77,30.11,29.95,1,0,4,0.04
2013-10-11,67.6,62.3,57.5,60.7,57.9,55.4,96,86,70,29.97,29.91,0,0,1,0.00
2013-10-12,65.4,61.8,55.5,61.7,58.6,53.5,96,89,78,30.08,29.95,1,0,1,0.00
2013-10-13,62.8,60.8,59.0,60.6,59.0,56.8,98,94,90,30.21,30.08,3,1,4,0.01
2013-10-14,61.6,58.8,57.2,58.8,57.1,54.9,98,94,87,30.24,30.17,3,1,5,0.01
2013-10-15,68.4,59.9,53.0,54.9,52.0,47.7,95,77,48,30.21,30.06,3,0,5,0.00
2013-10-16,71.5,63.4,57.7,60.2,56.9,51.0,93,80,59,30.08,29.93,0,0,0,0.00
2013-10-17,68.3,63.1,58.9,63.1,60.0,57.8,98,90,73,29.95,29.83,1,0,2,0.00
2013-10-18,66.8,59.3,52.4,62.6,51.6,44.1,96,77,51,30.04,29.87,1,0,3,0.00
2013-10-19,58.1,54.5,52.1,56.1,52.6,49.6,96,93,91,29.97,29.88,0,0,0,0.03
2013-10-20,61.1,51.8,43.6,51.3,41.0,36.2,94,69,41,30.12,29.91,2,0,4,0.00
2013-10-21,65.4,53.0,38.4,50.3,44.4,35.7,96,75,48,30.16,30.00,1,0,5,0.00
2013-10-22,63.8,56.7,51.1,55.5,51.7,47.7,96,84,60,30.01,29.79,0,0,0,0.00
2013-10-23,62.7,55.8,43.7,56.9,43.8,29.3,97,68,33,30.00,29.69,3,0,6,0.00
2013-10-24,54.7,45.0,33.2,37.1,31.9,28.1,89,62,40,30.19,30.01,2,0,2,0.00
2013-10-25,50.8,43.7,35.8,34.3,30.1,23.6,79,60,36,30.38,30.19,1,0,2,0.00
2013-10-26,55.8,42.3,28.2,34.9,28.5,24.6,90,62,32,30.37,30.09,2,0,6,0.00
2013-10-27,65.4,52.7,40.4,45.3,38.3,33.4,86,61,33,30.13,30.04,1,0,4,0.00
2013-10-28,65.8,54.1,44.7,50.6,46.2,41.0,92,76,51,30.26,30.11,1,0,1,0.00
2013-10-29,71.0,57.9,49.3,53.5,50.2,46.5,93,77,50,30.33,30.24,1,0,2,0.00
2013-10-30,73.2,60.0,51.1,57.3,52.4,48.0,94,77,52,30.27,30.14,2,0,5,0.00
2013-10-31,68.3,62.1,54.1,60.9,54.9,51.3,93,78,63,30.18,29.88,3,0,6,0.00
2013-11-1,67.8,64.2,58.1,63.7,60.8,55.8,97,89,78,29.87,29.65,4,2,8,0.49
2013-11-2,66.4,57.3,49.6,57.5,48.3,37.0,98,75,36,29.95,29.69,0,0,0,0.00
2013-11-3,59.4,49.0,39.3,40.5,35.6,31.4,88,62,35,30.36,29.95,0,0,0,0.00
2013-11-4,55.0,44.9,37.8,34.1,30.9,27.5,73,59,37,30.55,30.36,0,0,0,0.00
2013-11-5,54.1,45.2,35.3,46.5,36.9,27.9,87,73,61,30.57,30.44,0,0,0,0.00
2013-11-6,68.3,55.1,44.0,52.7,46.9,40.0,89,75,52,30.44,30.11,0,0,0,0.00
2013-11-7,62.5,54.4,43.6,54.5,45.8,30.9,98,75,44,30.11,29.94,2,0,4,0.00
2013-11-8,52.9,42.2,31.3,31.7,26.8,17.8,87,58,25,30.33,30.12,2,0,3,0.00
2013-11-9,55.5,42.0,28.5,34.7,28.0,21.8,89,62,29,30.38,30.19,3,0,5,0.00
2013-11-10,68.4,47.8,36.0,35.7,31.5,20.9,86,58,25,30.25,30.09,4,0,7,0.00
2013-11-11,57.4,45.4,30.9,32.4,27.0,22.6,82,52,27,30.35,30.14,2,0,3,0.00
2013-11-12,55.8,41.2,30.3,35.1,31.1,16.5,94,70,37,30.45,30.05,5,1,8,0.04
2013-11-13,41.8,31.4,24.9,24.5,18.5,14.4,84,61,33,30.56,30.44,2,0,7,0.00
2013-11-14,54.5,37.1,22.0,28.0,21.9,18.1,89,60,24,30.49,30.34,3,0,6,0.00
2013-11-15,57.4,43.7,29.2,45.5,33.0,23.8,92,68,39,30.37,30.22,2,0,4,0.01
2013-11-16,59.4,52.3,47.7,53.9,50.1,45.5,98,92,80,30.27,30.20,0,0,0,0.01
2013-11-17,63.8,57.7,52.7,62.4,55.7,51.9,98,93,78,30.22,29.87,4,0,7,0.07
2013-11-18,72.0,62.0,50.5,63.9,47.8,26.3,98,65,30,29.98,29.79,5,2,7,0.07
2013-11-19,52.1,45.1,35.7,29.8,25.5,21.9,76,47,31,30.30,29.97,3,0,5,0.00
2013-11-20,52.6,41.7,33.4,31.4,27.2,24.1,70,57,38,30.46,30.30,5,2,7,0.00
2013-11-21,56.9,47.0,39.4,42.0,37.1,31.6,77,69,56,30.51,30.39,5,1,6,0.00
2013-11-22,66.3,56.2,47.3,56.3,48.7,40.2,90,76,66,30.40,30.08,5,1,7,0.00
2013-11-23,59.2,52.7,39.3,56.3,37.9,15.7,93,61,27,30.19,30.03,4,1,6,0.00
2013-11-24,39.1,30.4,23.8,19.8,5.5,-4.3,57,36,19,30.56,30.19,6,2,8,0.00
2013-11-25,39.6,29.7,18.4,17.2,8.1,2.4,74,43,22,30.60,30.39,2,0,6,0.00
2013-11-26,55.2,37.3,30.9,54.9,31.1,9.0,99,82,33,30.38,29.60,4,1,6,0.91
2013-11-27,43.4,36.3,26.3,42.9,30.1,12.4,98,80,52,30.19,29.50,5,2,8,0.22
2013-11-28,42.3,29.1,19.3,21.5,16.2,11.5,83,60,32,30.50,30.20,2,0,4,0.00
2013-11-29,49.0,34.2,21.7,24.1,21.2,19.1,92,62,35,30.65,30.49,6,1,7,0.00
2013-11-30,45.8,33.1,26.0,25.9,22.1,18.9,86,65,42,30.66,30.39,4,1,6,0.00
2013-12-1,56.8,36.7,23.2,32.1,26.4,20.7,92,70,32,30.39,30.04,2,0,5,0.00
2013-12-2,58.9,43.4,28.0,39.2,34.0,26.2,97,72,45,30.04,29.83,3,0,5,0.00
2013-12-3,55.5,44.9,32.3,47.3,39.6,30.2,96,82,70,29.99,29.87,2,0,5,0.00
2013-12-4,58.4,53.6,48.4,55.4,51.3,44.4,98,92,84,30.08,29.97,3,0,5,0.03
2013-12-5,63.3,60.0,55.8,62.1,59.1,55.2,99,97,91,30.11,30.00,4,2,11,0.09
2013-12-6,74.1,67.6,63.3,62.8,60.4,58.3,97,79,60,30.04,29.94,7,4,12,0.00
2013-12-7,67.8,47.5,40.3,62.3,43.3,31.7,95,85,71,30.45,29.95,7,3,9,0.20
2013-12-8,40.1,33.0,30.7,31.7,29.3,24.5,96,87,60,30.46,30.30,5,2,7,0.02
2013-12-9,42.0,36.9,31.3,41.7,36.4,30.3,99,98,96,30.30,30.07,2,0,4,0.33
2013-12-10,46.2,39.7,26.3,42.8,35.8,21.6,99,87,52,30.32,29.91,4,1,6,0.14
2013-12-11,46.7,32.7,19.8,27.0,22.2,17.3,95,69,34,30.47,30.30,4,0,4,0.01
2013-12-12,43.0,33.2,22.8,24.4,16.8,7.5,89,54,24,30.43,30.29,4,1,7,0.00
2013-12-13,50.1,33.0,18.4,28.1,19.8,14.3,87,63,27,30.40,30.28,4,0,7,0.00
2013-12-14,44.3,38.4,35.3,38.9,32.1,25.6,98,79,56,30.32,29.78,4,1,6,0.47
2013-12-15,49.9,39.6,28.6,40.6,31.7,24.1,99,76,46,30.09,29.73,5,1,8,0.01
2013-12-16,54.7,39.7,26.6,32.1,28.0,23.0,90,65,35,30.18,30.08,2,0,5,0.00
2013-12-17,59.5,46.3,32.8,35.2,31.6,27.2,85,59,37,30.12,29.87,6,2,11,0.00
2013-12-18,48.0,38.6,28.2,27.1,17.6,12.5,74,44,24,30.29,30.04,5,1,6,0.00
2013-12-19,60.9,44.2,26.6,26.5,21.9,19.1,82,45,21,30.33,30.22,4,1,8,0.00
2013-12-20,63.2,51.5,38.3,47.9,38.9,25.5,80,63,42,30.24,30.11,6,2,9,0.00
2013-12-21,70.5,57.8,45.2,61.3,52.3,43.3,98,83,62,30.14,30.00,7,2,12,0.00
2013-12-22,71.5,65.8,60.5,65.0,61.6,58.2,97,87,71,30.06,29.97,8,3,13,0.29
2013-12-23,62.5,56.0,41.1,61.9,52.9,29.1,98,90,61,30.16,29.98,6,3,9,1.11
2013-12-24,43.0,36.6,26.6,29.6,21.2,10.8,66,54,36,30.47,30.15,6,3,11,0.00
2013-12-25,39.6,27.3,20.3,18.0,10.2,5.2,81,51,25,30.57,30.41,2,0,6,0.00
2013-12-26,49.8,33.9,20.9,24.5,19.7,15.0,83,59,31,30.42,30.27,3,0,6,0.00
2013-12-27,52.9,35.7,23.3,23.5,19.0,14.2,84,55,24,30.49,30.38,2,0,4,0.00
2013-12-28,54.8,38.8,23.0,37.1,25.4,19.4,89,64,26,30.42,30.16,2,0,5,0.00
2013-12-29,53.8,44.7,39.7,46.7,40.9,33.5,98,87,68,30.16,29.73,4,1,7,1.01
2013-12-30,49.9,41.3,31.9,39.1,35.0,30.4,98,79,60,30.14,29.93,2,0,3,0.00
2013-12-31,48.0,38.5,29.2,33.7,25.9,17.7,95,64,31,30.37,30.13,5,1,8,0.00
2014-1-1,49.0,35.8,26.9,28.2,23.7,18.0,88,65,32,30.42,30.16,4,0,5,0.00
2014-1-2,44.3,38.8,33.1,41.6,34.5,27.4,97,85,71,30.16,29.62,4,0,5,0.26